Date,TemperatureHighF,TemperatureAvgF,TemperatureLowF,DewpointHighF,DewpointAvgF,DewpointLowF,HumidityHigh,HumidityAvg,HumidityLow,PressureMaxIn,PressureMinIn,WindSpeedMaxMPH,WindSpeedAvgMPH,GustSpeedMaxMPH,PrecipitationSumIn
2013-1-1,56,43,35,43,37,33,98,83,54,30.27,30.18,5,1,11,0.01
2013-1-2,64,45,33,43,34,28,94,70,28,30.24,30.12,2,1,7,0.00
2013-1-3,66,46,36,44,36,29,87,69,40,30.25,30.15,5,0,6,0.00
2013-1-4,62,48,39,43,35,27,93,64,34,30.28,30.17,8,1,12,0.00
2013-1-5,50,46,41,48,44,39,99,95,86,30.26,30.08,8,1,14,0.41
2013-1-6,48,44,40,47,43,39,100,98,90,30.18,30.05,2,0,6,0.10
2013-1-7,60,47,40,52,45,40,100,93,67,30.26,30.14,6,0,7,0.01
2013-1-8,66,51,44,54,47,43,99,87,59,30.20,30.09,5,0,7,0.01
2013-1-9,56,46,39,50,44,38,98,91,79,30.12,30.00,3,0,8,0.04
2013-1-10,50,42,37,42,38,36,99,87,60,30.20,30.08,5,0,13,0.04
2013-1-11,54,42,36,40,37,33,95,82,55,30.27,30.14,3,0,9,0.01
2013-1-12,53,40,32,39,34,27,97,80,39,30.25,30.13,4,0,10,0.01
2013-1-13,53,38,28,33,26,19,93,65,31,30.27,30.16,4,0,8,0.00
2013-1-14,55,42,34,25,18,11,66,40,22,30.40,30.22,4,0,8,0.00
2013-1-15,55,41,31,33,29,23,83,64,40,30.48,30.39,8,1,11,0.00
2013-1-16,64,45,32,38,33,28,89,66,28,30.42,30.23,6,1,9,0.00
2013-1-17,73,54,40,45,35,30,80,53,22,30.24,30.11,6,1,8,0.00
2013-1-18,70,55,46,45,32,23,67,46,17,30.18,30.09,9,1,11,0.00
2013-1-19,71,53,44,44,33,27,65,49,20,30.20,30.12,9,1,11,0.00
2013-1-20,74,55,44,44,34,27,67,47,23,30.19,30.07,7,1,7,0.00
2013-1-21,73,55,44,44,30,23,61,40,18,30.14,30.06,7,1,9,0.00
2013-1-22,67,55,46,43,32,22,57,42,25,30.09,29.99,11,1,13,0.00
2013-1-23,55,51,48,50,41,29,98,71,39,30.06,29.95,4,0,5,0.09
2013-1-24,54,51,48,54,51,48,100,99,97,30.17,30.04,2,0,3,0.21
2013-1-25,70,57,50,61,55,50,100,93,67,30.17,30.02,2,0,7,0.03
2013-1-26,57,49,43,52,45,41,100,88,59,30.08,30.00,7,0,10,0.01
2013-1-27,59,47,41,41,39,37,94,78,45,30.16,30.07,4,0,7,0.01
2013-1-28,60,46,39,44,41,37,94,82,53,30.29,30.15,5,0,10,0.00
2013-1-29,62,49,42,47,43,40,92,80,57,30.34,30.23,6,0,9,0.00
2013-1-30,65,54,43,48,43,39,87,69,51,30.34,30.24,8,1,11,0.00
2013-1-31,69,53,42,49,43,36,89,72,43,30.26,30.15,7,1,10,0.00
2013-2-1,70,53,43,50,44,41,90,75,35,30.21,30.09,8,1,12,0.00
2013-2-2,66,50,43,53,46,40,97,84,52,30.26,30.19,9,0,10,0.00
2013-2-3,63,48,41,49,44,40,98,86,58,30.24,30.11,7,0,9,0.01
2013-2-4,68,50,39,51,45,38,98,83,51,30.17,30.04,5,0,9,0.01
2013-2-5,57,48,42,46,44,41,97,87,66,30.14,30.05,4,0,8,0.00
2013-2-6,61,46,36,48,42,36,98,84,52,30.19,30.10,9,1,11,0.01
2013-2-7,56,42,35,49,39,34,98,91,55,30.18,30.02,4,0,6,0.11
2013-2-8,54,42,36,44,39,33,99,90,60,30.02,29.95,3,0,7,0.03
2013-2-9,57,44,35,42,35,30,94,72,36,30.10,29.99,7,1,10,0.00
2013-2-10,64,45,33,39,34,30,92,71,31,30.12,30.01,2,0,6,0.00
2013-2-11,65,49,38,36,32,23,88,56,23,30.23,30.06,5,1,8,0.00
2013-2-12,62,47,36,43,38,32,94,74,44,30.35,30.24,7,1,9,0.00
2013-2-13,70,51,39,44,39,35,94,68,28,30.33,30.20,3,0,7,0.00
2013-2-14,75,57,42,43,40,38,90,58,31,30.21,30.12,5,0,6,0.00
2013-2-15,79,59,45,49,40,37,76,53,24,30.23,30.16,5,0,9,0.00
2013-2-16,74,58,48,50,40,32,85,54,24,30.20,30.03,7,1,10,0.00
2013-2-17,62,49,41,49,44,40,97,82,59,30.04,29.96,8,1,11,0.00
2013-2-18,51,44,38,44,40,38,98,88,68,30.05,29.99,1,0,6,0.01
2013-2-19,49,40,35,46,39,35,98,96,84,30.00,29.77,9,1,15,0.38
2013-2-20,59,44,34,42,38,34,98,81,50,30.07,29.84,7,1,13,0.01
2013-2-21,61,47,38,41,37,32,93,72,35,30.18,30.04,7,1,11,0.00
2013-2-22,68,48,35,42,37,33,93,71,33,30.25,30.17,5,0,9,0.00
2013-2-23,59,48,42,45,40,33,97,75,47,30.24,30.13,6,1,10,0.03
2013-2-24,65,50,40,35,28,23,77,47,23,30.24,30.14,8,1,12,0.00
2013-2-25,68,48,36,48,39,30,94,72,40,30.27,30.15,6,1,10,0.00
2013-2-26,72,53,36,39,31,21,95,51,17,30.20,30.11,5,1,6,0.00
2013-2-27,73,56,43,42,35,30,75,49,24,30.35,30.20,8,1,9,0.00
2013-2-28,75,56,44,53,47,41,93,76,47,30.43,30.35,2,0,7,0.00
2013-3-1,79,60,46,55,50,45,98,74,36,30.41,30.20,7,1,11,0.01
2013-3-2,71,58,49,53,47,42,94,68,40,30.22,30.06,9,1,11,0.00
2013-3-3,66,53,45,50,46,43,97,80,47,30.10,30.02,6,0,7,0.00
2013-3-4,63,50,42,50,44,41,94,84,60,30.14,30.04,10,1,11,0.00
2013-3-5,50,45,41,44,42,40,98,89,71,30.09,29.93,19,5,24,0.47
2013-3-6,55,46,38,47,42,37,99,87,59,30.09,29.93,16,2,23,0.60
2013-3-7,52,43,35,44,40,35,99,89,62,30.01,29.87,10,1,12,0.38
2013-3-8,56,47,41,49,43,41,99,87,65,30.09,29.83,6,1,13,0.06
2013-3-9,66,52,44,46,41,37,92,70,34,30.30,30.09,7,1,11,0.00
2013-3-10,70,53,39,48,42,34,93,69,27,30.33,30.24,8,1,12,0.00
2013-3-11,77,57,43,46,41,35,82,59,28,30.25,30.10,6,1,9,0.00
2013-3-12,77,60,44,52,46,38,82,63,36,30.12,30.04,9,1,11,0.00
2013-3-13,84,64,50,56,49,40,85,63,24,30.12,30.04,7,1,10,0.00
2013-3-14,81,61,50,57,48,34,90,65,35,30.12,30.06,2,0,7,0.00
2013-3-15,78,58,45,53,45,37,87,64,33,30.09,30.02,4,0,8,0.00
2013-3-16,78,57,42,54,43,32,98,68,23,30.08,30.01,8,0,14,0.00
2013-3-17,76,56,43,46,40,31,89,63,20,30.12,30.02,5,1,10,0.00
2013-3-18,67,52,40,53,44,38,93,77,52,30.12,30.03,5,0,7,0.00
2013-3-19,73,54,45,50,43,33,98,69,36,30.14,30.06,7,1,14,0.09
2013-3-20,62,54,50,55,52,49,100,91,70,30.12,30.07,4,0,7,0.02
2013-3-21,68,53,41,49,43,39,95,72,42,30.12,29.99,5,0,8,0.00
2013-3-22,71,56,42,40,31,18,93,45,14,30.09,30.00,6,1,12,0.00
2013-3-23,74,57,45,43,32,23,74,42,15,30.11,30.02,4,0,6,0.00
2013-3-24,73,55,41,51,43,34,87,65,42,30.08,29.95,8,1,12,0.00
2013-3-25,68,52,42,49,43,39,90,73,46,30.01,29.93,9,1,12,0.00
2013-3-26,70,55,43,52,46,41,94,75,48,30.00,29.91,7,1,11,0.00
2013-3-27,64,53,45,53,49,44,98,87,64,30.02,29.95,9,2,12,0.00
2013-3-28,67,56,50,57,52,49,100,90,66,30.08,30.01,10,2,12,0.04
2013-3-29,71,58,45,57,51,45,100,80,49,30.07,30.01,13,2,15,0.00
2013-3-30,65,54,48,53,50,48,99,88,57,30.08,29.99,11,2,15,0.25
2013-3-31,60,54,51,55,52,50,99,91,74,30.07,30.00,12,4,19,0.07
2013-4-1,63,54,48,53,51,47,100,89,62,30.15,30.05,8,2,12,0.32
2013-4-2,73,55,43,56,50,42,100,85,54,30.18,30.07,5,0,9,0.01
2013-4-3,75,56,44,55,48,37,99,78,26,30.12,29.98,9,2,13,0.01
2013-4-4,56,51,47,56,51,47,100,99,95,30.13,30.01,6,2,10,0.31
2013-4-5,68,57,49,55,51,48,100,84,54,30.18,30.11,5,0,10,0.00
2013-4-6,68,54,48,56,50,47,99,87,54,30.20,30.13,4,0,10,0.01
2013-4-7,70,55,46,55,49,46,99,83,48,30.17,29.88,4,0,8,0.08
2013-4-8,65,51,43,49,41,35,97,71,34,30.01,29.81,11,2,23,0.04
2013-4-9,73,61,44,42,37,33,91,45,24,30.08,30.01,6,1,13,0.00
2013-4-10,89,70,56,52,44,34,75,40,25,30.14,30.03,7,1,11,0.00
2013-4-11,72,58,45,51,46,42,91,68,38,30.04,29.84,5,0,11,0.00
2013-4-12,74,55,41,56,47,40,98,77,46,29.92,29.83,10,2,11,0.00
2013-4-13,73,53,43,54,44,39,95,72,41,29.91,29.85,7,1,12,0.01
2013-4-14,70,52,41,45,41,37,94,70,33,29.93,29.87,5,0,18,0.00
2013-4-15,57,48,41,47,40,36,97,75,52,29.97,29.86,7,1,22,0.02
2013-4-16,66,50,36,39,36,32,94,62,31,30.14,29.97,7,1,10,0.00
2013-4-17,70,56,47,36,32,29,55,42,22,30.25,30.14,5,1,14,0.00
2013-4-18,78,59,43,39,35,30,69,45,19,30.26,30.17,4,0,9,0.00
2013-4-19,82,62,47,52,44,37,73,54,26,30.23,30.06,8,2,13,0.00
2013-4-20,84,65,49,47,43,38,87,51,21,30.08,29.96,7,0,11,0.00
2013-4-21,91,69,50,49,42,37,76,42,16,30.00,29.90,4,0,8,0.00
2013-4-22,81,65,52,58,49,41,91,58,37,29.94,29.84,9,2,11,0.00
2013-4-23,72,57,47,55,48,32,96,75,35,29.93,29.83,10,3,12,0.00
2013-4-24,60,51,44,52,48,43,98,89,73,29.97,29.81,9,2,14,0.00
2013-4-25,70,56,45,54,49,44,99,80,54,30.12,29.97,8,1,12,0.01
2013-4-26,75,58,46,58,50,45,96,79,53,30.20,30.11,9,2,11,0.00
2013-4-27,80,60,43,58,49,42,97,71,39,30.20,30.05,9,2,11,0.01
2013-4-28,81,62,44,60,52,42,94,71,44,30.06,29.89,9,1,11,0.00
2013-4-29,95,72,54,52,49,43,77,49,20,29.89,29.75,5,1,9,0.00
2013-4-30,85,64,48,55,45,37,91,57,19,29.82,29.76,6,1,8,0.00
2013-5-1,78,61,44,56,46,26,94,61,26,30.07,29.82,7,2,12,0.00
2013-5-2,90,73,54,50,40,32,80,33,15,30.12,30.05,8,1,12,0.00
2013-5-3,91,71,55,47,37,30,49,31,15,30.06,29.77,8,1,11,0.00
2013-5-4,77,60,50,53,45,34,91,60,38,29.77,29.61,12,4,20,0.00
2013-5-5,60,55,51,51,49,47,89,80,64,29.80,29.62,21,8,29,0.00
2013-5-6,63,56,52,53,51,49,92,82,62,29.97,29.80,10,2,18,0.00
2013-5-7,70,59,52,53,50,48,92,75,48,30.04,29.95,10,1,14,0.00
2013-5-8,74,56,45,55,49,43,97,78,48,30.13,30.03,7,1,11,0.00
2013-5-9,82,60,48,58,51,46,95,75,43,30.16,30.06,8,0,13,0.00
2013-5-10,81,61,48,60,52,46,96,76,45,30.16,30.07,10,1,12,0.00
2013-5-11,89,68,50,60,54,48,94,66,32,30.12,30.02,8,1,12,0.00
2013-5-12,92,70,54,62,51,44,84,54,27,30.09,29.98,3,0,8,0.00
2013-5-13,89,66,50,60,49,40,79,57,36,30.05,29.94,5,0,11,0.00
2013-5-14,76,59,48,57,48,40,95,72,35,30.03,29.92,10,2,12,0.00
2013-5-15,69,52,45,49,46,43,94,82,43,30.05,30.01,6,1,11,0.00
2013-5-16,74,59,50,56,51,47,94,78,48,30.03,29.96,4,0,8,0.01
2013-5-17,73,57,47,48,45,38,94,69,28,30.07,29.97,5,1,9,0.00
2013-5-18,79,59,46,50,46,40,94,68,27,30.12,30.07,8,1,14,0.00
2013-5-19,86,65,46,49,44,37,94,53,22,30.10,29.95,6,1,9,0.00
2013-5-20,92,71,53,46,40,31,62,37,13,29.97,29.90,5,0,10,0.00
2013-5-21,70,56,47,51,44,40,83,66,40,29.97,29.88,7,1,14,0.00
2013-5-22,68,53,44,42,37,30,82,58,28,29.99,29.93,7,1,11,0.00
2013-5-23,70,54,45,46,42,39,89,67,39,30.01,29.93,8,0,10,0.00
2013-5-24,75,54,40,49,43,38,97,71,34,30.01,29.96,9,1,13,0.00
2013-5-25,66,51,44,48,44,42,92,80,52,30.03,29.99,6,0,7,0.00
2013-5-26,73,64,54,55,52,49,89,66,48,30.13,30.07,5,1,8,0.02
2013-5-27,68,58,50,56,52,47,94,81,62,30.12,30.00,4,0,9,0.01
2013-5-28,75,62,52,59,54,48,97,77,42,30.00,29.89,4,0,9,0.00
2013-5-29,76,60,49,58,50,45,92,73,42,29.96,29.90,7,1,12,0.00
2013-5-30,82,60,45,48,41,26,97,58,13,29.98,29.92,8,0,14,0.00
2013-5-31,92,67,46,52,45,40,92,54,17,29.99,29.89,8,0,8,0.00
2013-6-1,97,73,54,56,49,44,73,48,18,29.92,29.76,8,1,11,0.00
2013-6-2,74,59,49,57,51,46,96,75,55,29.77,29.70,13,3,16,0.00
2013-6-3,64,55,49,55,51,48,99,87,67,29.88,29.75,13,3,15,0.00
2013-6-4,67,56,47,57,52,46,98,86,67,29.98,29.86,9,2,12,0.00
2013-6-5,72,57,48,58,52,47,98,83,60,29.99,29.93,9,3,13,0.01
2013-6-6,74,58,49,59,52,49,98,83,57,29.96,29.87,10,2,12,0.00
2013-6-7,88,63,50,65,55,50,99,78,43,29.90,29.75,8,1,11,0.00
2013-6-8,74,60,49,60,55,48,98,83,60,29.85,29.74,12,3,16,0.00
2013-6-9,63,57,53,57,54,52,99,91,78,29.89,29.82,11,4,16,0.00
2013-6-10,71,59,53,57,52,49,91,79,59,29.95,29.86,12,3,18,0.00
2013-6-11,80,62,51,60,54,49,93,77,46,29.96,29.89,8,1,10,0.00
2013-6-12,84,62,48,57,47,39,94,63,20,30.01,29.90,7,1,11,0.00
2013-6-13,84,62,46,53,46,40,92,63,29,30.07,29.99,7,0,12,0.00
2013-6-14,90,68,49,51,44,40,86,49,19,29.99,29.82,5,0,8,0.00
2013-6-15,71,57,45,56,50,43,98,79,57,30.01,29.82,9,2,14,0.00
2013-6-16,85,63,46,55,49,45,98,67,25,30.08,30.00,6,1,14,0.00
2013-6-17,80,63,49,57,51,47,91,70,39,30.09,30.02,5,0,12,0.00
2013-6-18,71,59,51,52,49,47,95,73,43,30.03,30.00,4,0,12,0.00
2013-6-19,75,60,49,51,47,45,89,66,37,30.04,30.00,4,1,11,0.00
2013-6-20,82,61,46,52,46,39,95,64,22,30.02,29.95,7,1,10,0.00
2013-6-21,87,62,47,57,48,42,95,65,26,29.99,29.92,8,1,12,0.00
2013-6-22,90,65,48,59,50,41,91,63,26,29.94,29.87,7,1,14,0.00
2013-6-23,70,61,54,60,57,52,95,85,69,29.89,29.82,6,1,7,0.00
2013-6-24,62,59,57,60,58,57,100,97,89,29.93,29.79,7,2,11,0.02
2013-6-25,67,60,56,65,60,56,100,98,94,30.01,29.92,8,2,12,0.03
2013-6-26,88,71,60,68,63,59,100,79,49,30.03,29.96,6,1,11,0.00
2013-6-27,98,75,58,65,60,56,96,65,32,30.03,29.98,4,0,7,0.00
2013-6-28,101,81,65,64,55,45,72,45,20,30.01,29.88,9,1,11,0.00
2013-6-29,105,84,66,61,52,47,66,35,16,29.90,29.78,10,1,11,0.00
2013-6-30,102,78,61,64,55,49,75,49,20,29.82,29.74,7,1,10,0.00
2013-7-1,86,74,61,61,56,50,76,57,38,29.87,29.77,10,2,15,0.00
2013-7-2,88,73,62,62,58,57,83,63,37,29.92,29.82,10,2,18,0.00
2013-7-3,88,70,58,65,59,55,90,71,43,29.91,29.77,11,1,12,0.00
2013-7-4,86,70,59,65,60,56,90,72,49,29.78,29.71,9,2,12,0.00
2013-7-5,75,62,52,58,54,50,94,77,55,29.81,29.74,10,2,13,0.00
2013-7-6,72,57,52,57,53,50,97,86,57,29.82,29.76,8,3,13,0.00
2013-7-7,76,59,51,57,53,50,96,81,51,29.87,29.80,10,3,13,0.00
2013-7-8,80,60,51,58,52,44,98,79,28,29.97,29.87,9,2,13,0.00
2013-7-9,94,69,51,60,54,49,93,66,31,30.00,29.92,9,2,11,0.00
2013-7-10,81,62,52,60,55,51,99,80,50,29.98,29.90,12,3,14,0.00
2013-7-11,74,60,52,58,54,50,99,83,55,29.94,29.89,9,2,14,0.00
2013-7-12,79,60,50,58,53,50,99,81,47,29.94,29.88,10,2,12,0.00
2013-7-13,82,62,46,60,53,45,98,76,44,29.97,29.90,11,2,13,0.01
2013-7-14,80,62,48,60,53,48,99,77,46,29.99,29.90,10,3,13,0.00
2013-7-15,73,58,50,58,53,50,99,85,58,29.93,29.84,9,2,15,0.00
2013-7-16,74,60,53,58,54,51,97,82,55,30.02,29.88,7,2,11,0.00
2013-7-17,81,66,54,60,55,52,92,72,44,30.07,30.01,9,2,13,0.00
2013-7-18,84,64,48,61,54,47,98,74,43,30.04,29.93,10,2,12,0.00
2013-7-19,80,61,48,61,54,47,98,79,50,29.95,29.84,8,2,13,0.01
2013-7-20,75,58,50,60,53,49,98,85,57,29.87,29.78,10,2,13,0.00
2013-7-21,81,63,49,60,55,49,99,77,47,29.89,29.78,13,3,16,0.00
2013-7-22,77,64,57,61,57,54,95,79,56,29.96,29.88,8,2,14,0.00
2013-7-23,82,68,59,61,57,54,90,71,40,29.99,29.94,10,2,13,0.00
2013-7-24,84,68,55,62,57,53,93,72,44,29.97,29.89,9,2,12,0.00
2013-7-25,81,64,52,61,56,51,97,78,49,30.02,29.92,10,2,12,0.00
2013-7-26,79,62,51,62,55,50,99,81,53,30.09,30.01,10,3,14,0.00
2013-7-27,77,61,52,61,56,52,99,84,56,30.03,29.88,9,3,13,0.00
2013-7-28,70,58,52,59,54,51,99,88,66,29.89,29.82,11,3,14,0.00
2013-7-29,70,58,52,57,53,50,94,85,63,30.03,29.88,12,4,13,0.00
2013-7-30,75,60,51,58,53,50,95,79,47,30.10,30.03,11,3,15,0.00
2013-7-31,77,62,51,59,53,48,97,76,41,30.09,30.02,10,2,13,0.00
2013-8-1,84,64,51,56,51,48,92,67,33,30.08,29.97,5,0,8,0.00
2013-8-2,80,60,47,59,52,46,97,78,48,29.98,29.91,8,2,13,0.01
2013-8-3,72,57,50,58,53,50,99,88,59,29.99,29.93,9,2,13,0.00
2013-8-4,74,59,51,59,54,50,99,85,57,30.01,29.95,11,2,13,0.00
2013-8-5,79,59,49,59,52,48,99,81,45,30.02,29.94,9,2,13,0.00
2013-8-6,74,59,50,59,54,49,98,83,58,30.05,29.97,10,2,14,0.00
2013-8-7,76,62,54,58,55,53,96,78,54,30.09,30.02,11,2,13,0.00
2013-8-8,74,59,52,59,54,50,99,84,56,30.04,29.93,9,2,15,0.00
2013-8-9,76,62,52,59,55,50,95,79,55,29.99,29.92,7,1,13,0.00
2013-8-10,82,65,54,62,56,52,96,77,47,30.02,29.96,8,1,11,0.00
2013-8-11,81,65,53,62,56,52,97,77,49,30.01,29.93,10,2,12,0.00
2013-8-12,83,64,51,61,55,50,98,78,45,29.99,29.94,10,2,11,0.01
2013-8-13,89,68,52,59,52,48,95,63,27,29.97,29.91,9,2,14,0.00
2013-8-14,92,68,54,59,52,46,90,62,21,29.96,29.90,6,1,12,0.00
2013-8-15,95,73,57,67,61,57,99,72,34,29.94,29.89,2,0,9,0.01
2013-8-16,96,73,60,65,59,45,96,66,36,29.96,29.91,8,1,11,0.00
2013-8-17,85,66,56,60,54,44,91,66,41,29.97,29.88,6,0,9,0.00
2013-8-18,94,69,52,62,57,51,98,71,25,29.90,29.78,8,2,11,0.00
2013-8-19,88,67,56,61,57,54,94,73,36,29.91,29.80,8,2,14,0.00
2013-8-20,77,62,54,60,56,52,99,83,50,29.91,29.84,11,3,14,0.00
2013-8-21,80,62,53,57,54,52,98,78,40,29.94,29.85,9,2,14,0.00
2013-8-22,80,64,51,59,54,50,98,75,43,29.96,29.87,9,1,13,0.00
2013-8-23,86,65,52,60,54,51,96,72,34,29.92,29.81,8,0,10,0.00
2013-8-24,88,68,52,60,56,51,96,71,36,29.89,29.83,4,0,9,0.00
2013-8-25,80,66,57,64,58,50,98,77,46,29.95,29.88,12,2,15,0.01
2013-8-26,87,67,56,62,56,49,93,71,42,29.98,29.88,5,0,10,0.00
2013-8-27,90,66,50,58,53,47,91,66,34,29.90,29.81,8,1,11,0.00
2013-8-28,89,69,53,64,57,52,96,71,34,29.93,29.84,12,1,13,0.00
2013-8-29,92,70,54,65,59,54,99,74,40,30.02,29.93,8,1,13,0.01
2013-8-30,99,74,58,63,57,51,93,62,24,30.02,29.89,7,1,12,0.00
2013-8-31,91,73,59,58,53,49,73,53,26,29.95,29.86,11,1,14,0.00
2013-9-1,90,72,60,62,57,53,84,61,36,29.91,29.84,10,1,14,0.00
2013-9-2,86,70,62,63,60,56,90,73,45,29.93,29.86,6,0,10,0.01
2013-9-3,86,68,55,59,54,49,93,65,32,29.98,29.91,4,0,8,0.00
2013-9-4,85,67,56,58,55,53,95,70,36,30.01,29.93,7,0,9,0.00
2013-9-5,83,67,58,57,55,53,89,69,38,30.00,29.95,7,1,11,0.00
2013-9-6,94,71,51,56,52,49,94,59,26,29.98,29.81,8,1,11,0.00
2013-9-7,90,72,60,59,53,47,85,54,26,29.86,29.80,9,2,14,0.00
2013-9-8,86,66,54,63,57,52,95,74,44,29.85,29.76,9,2,12,0.00
2013-9-9,88,68,54,62,57,53,94,70,40,29.79,29.72,9,2,11,0.00
2013-9-10,66,58,54,59,56,53,99,92,78,29.92,29.75,10,3,14,0.00
2013-9-11,74,62,57,61,57,55,94,84,62,30.00,29.92,9,2,12,0.00
2013-9-12,84,66,57,63,58,55,94,79,49,29.97,29.87,11,2,12,0.00
2013-9-13,90,67,54,62,54,37,98,71,18,29.90,29.75,7,1,10,0.01
2013-9-14,86,64,52,60,55,51,97,76,36,29.82,29.72,6,0,7,0.00
2013-9-15,87,66,51,60,56,50,99,74,36,29.84,29.78,5,0,8,0.01
2013-9-16,88,66,53,61,56,52,98,74,37,29.87,29.79,6,1,9,0.01
2013-9-17,73,62,52,56,53,50,92,75,46,29.89,29.84,6,1,14,0.00
2013-9-18,88,66,50,53,49,44,95,60,25,29.90,29.79,7,0,9,0.00
2013-9-19,93,69,52,51,45,38,70,46,17,29.82,29.72,8,1,11,0.00
2013-9-20,80,64,53,60,53,40,93,68,48,29.86,29.77,5,1,11,0.00
2013-9-21,63,58,52,61,57,52,99,95,83,29.90,29.81,9,2,19,0.29
2013-9-22,77,60,49,58,52,49,100,80,46,30.00,29.90,4,0,10,0.01
2013-9-23,88,66,51,58,53,49,95,69,29,30.00,29.91,5,0,9,0.00
2013-9-24,76,64,54,57,53,49,88,70,40,29.97,29.91,6,1,14,0.00
2013-9-25,69,58,51,50,47,43,90,70,43,29.92,29.82,7,1,13,0.00
2013-9-26,77,60,48,46,42,38,87,56,26,29.98,29.82,5,1,9,0.00
2013-9-27,84,62,46,47,38,33,80,47,17,30.08,29.98,4,1,12,0.00
2013-9-28,90,64,48,53,41,36,87,48,16,30.07,29.98,6,2,9,0.00
2013-9-29,90,66,50,59,54,47,93,71,32,30.08,30.01,6,1,8,0.00
2013-9-30,83,65,54,61,57,53,97,77,46,30.06,29.95,3,1,7,0.00
2013-10-1,82,62,50,52,48,43,88,65,32,30.00,29.91,8,1,11,0.00
2013-10-2,81,60,48,52,46,41,87,64,26,30.00,29.92,7,1,10,0.00
2013-10-3,75,61,47,43,37,28,83,47,21,30.04,29.93,7,1,10,0.00
2013-10-4,84,68,57,36,32,28,36,27,16,30.08,29.93,4,1,8,0.00
2013-10-5,87,69,56,35,30,21,41,26,10,30.16,30.08,10,1,12,0.00
2013-10-6,86,69,56,40,30,20,42,27,10,30.10,29.99,9,1,12,0.00
2013-10-7,89,67,55,38,32,28,42,29,15,29.99,29.87,7,1,11,0.00
2013-10-8,72,56,47,53,43,31,92,63,43,29.89,29.73,10,2,13,0.00
2013-10-9,70,55,46,49,45,40,95,73,43,29.77,29.62,7,1,12,0.00
2013-10-10,60,50,43,51,46,39,96,85,70,30.02,29.77,8,2,15,0.00
2013-10-11,76,55,45,53,47,44,96,78,37,30.08,29.97,6,1,9,0.00
2013-10-12,77,56,43,51,44,37,95,71,32,29.99,29.89,8,1,11,0.00
2013-10-13,72,58,47,52,47,41,96,71,36,30.05,29.92,8,1,13,0.00
2013-10-14,84,64,49,44,40,34,73,46,23,30.09,29.97,7,0,10,0.00
2013-10-15,85,67,53,38,35,32,52,33,17,30.01,29.92,4,0,8,0.00
2013-10-16,81,66,54,42,34,28,50,33,15,30.06,29.98,11,2,16,0.00
2013-10-17,88,66,53,43,35,31,48,33,14,30.06,29.95,4,0,8,0.00
2013-10-18,86,66,52,42,36,30,53,35,17,30.03,29.96,10,1,11,0.00
2013-10-19,86,66,54,46,40,32,65,43,15,30.04,29.98,8,1,13,0.00
2013-10-20,81,62,53,52,45,39,78,55,35,30.00,29.90,9,1,10,0.00
2013-10-21,83,59,44,51,43,33,89,58,30,29.98,29.90,10,2,12,0.00
2013-10-22,82,56,43,52,46,41,93,73,34,29.99,29.93,12,2,12,0.00
2013-10-23,76,54,43,55,48,41,97,81,46,29.97,29.89,8,2,11,0.00
2013-10-24,67,52,44,52,47,43,98,85,57,30.10,29.96,9,2,13,0.00
2013-10-25,79,56,42,52,47,41,96,75,33,30.15,30.05,7,1,10,0.00
2013-10-26,83,62,47,52,46,39,89,61,21,30.11,30.00,6,1,10,0.00
2013-10-27,66,53,42,52,46,40,95,79,54,30.02,29.72,10,2,15,0.00
2013-10-28,63,52,48,49,47,45,96,83,55,29.87,29.69,14,1,20,0.08
2013-10-29,68,53,44,53,47,41,96,83,51,30.04,29.87,8,1,10,0.00
2013-10-30,70,52,41,50,44,40,98,78,44,30.14,30.05,8,1,9,0.00
2013-10-31,77,58,44,50,45,42,93,66,30,30.17,30.05,5,0,8,0.00
2013-11-1,78,60,48,48,42,38,79,55,25,30.12,30.01,11,2,11,0.00
2013-11-2,78,59,48,51,42,33,88,56,35,30.02,29.91,5,0,10,0.00
2013-11-3,68,55,46,45,36,24,93,54,20,30.01,29.90,2,0,9,0.00
2013-11-4,69,54,38,37,32,29,83,48,23,30.05,29.90,4,0,9,0.00
2013-11-5,77,62,51,36,31,27,53,33,18,30.21,30.05,4,0,8,0.00
2013-11-6,78,61,50,42,36,29,61,42,17,30.23,30.14,7,1,10,0.00
2013-11-7,77,61,52,45,37,28,67,44,17,30.15,30.05,6,1,8,0.00
2013-11-8,79,61,50,49,46,42,79,59,30,30.07,29.94,8,1,10,0.00
2013-11-9,70,56,48,49,46,35,95,72,28,30.05,29.95,12,2,15,0.00
2013-11-10,67,52,43,52,47,42,98,84,45,30.11,30.02,9,2,12,0.00
2013-11-11,71,55,42,50,46,41,98,73,37,30.15,30.07,6,1,9,0.01
2013-11-12,80,62,53,51,47,42,77,60,31,30.23,30.14,4,0,7,0.00
2013-11-13,84,64,52,50,46,41,77,57,23,30.21,30.08,4,0,9,0.00
2013-11-14,77,57,48,54,46,42,82,68,42,30.08,29.88,7,1,9,0.00
2013-11-15,71,53,41,47,42,37,91,71,30,29.88,29.71,5,0,10,0.00
2013-11-16,70,52,40,49,44,38,95,79,42,29.93,29.78,8,1,8,0.00
2013-11-17,70,52,43,50,45,41,96,80,47,30.09,29.93,6,1,10,0.00
2013-11-18,64,49,39,48,43,37,96,82,50,30.15,30.08,6,1,8,0.00
2013-11-19,60,51,44,54,48,42,97,91,76,30.12,29.97,6,2,9,0.21
2013-11-20,57,53,49,56,53,48,98,98,97,29.97,29.84,7,2,12,0.30
2013-11-21,61,52,48,55,43,30,99,75,44,29.95,29.88,6,1,10,0.00
2013-11-22,68,52,41,36,30,23,73,45,20,30.01,29.91,4,1,9,0.00
2013-11-23,69,49,39,49,40,32,95,73,44,30.11,29.96,8,2,10,0.00
2013-11-24,68,50,39,46,41,37,95,74,42,30.25,30.11,6,0,8,0.01
2013-11-25,73,53,42,46,42,38,89,68,35,30.31,30.23,7,0,8,0.00
2013-11-26,69,55,46,47,42,36,79,62,39,30.24,30.01,6,0,8,0.00
2013-11-27,66,54,46,47,42,40,85,66,42,30.01,29.83,8,1,14,0.00
2013-11-28,69,55,46,47,43,40,84,65,35,30.07,29.84,7,1,8,0.00
2013-11-29,78,56,45,47,41,38,82,59,26,30.21,30.07,5,0,7,0.00
2013-11-30,76,56,44,44,40,35,77,57,26,30.24,30.17,2,0,6,0.00
2013-12-1,78,60,48,48,41,39,73,54,24,30.30,30.19,2,0,6,0.00
2013-12-2,74,56,48,49,45,41,93,69,36,30.22,29.97,7,0,9,0.00
2013-12-3,54,47,40,50,40,27,97,78,51,29.97,29.83,4,0,11,0.00
2013-12-4,55,42,32,31,27,21,84,57,30,30.07,29.92,5,0,9,0.00
2013-12-5,59,39,27,29,24,15,86,59,23,30.18,30.07,5,0,6,0.00
2013-12-6,50,40,29,46,34,24,96,80,52,30.21,29.96,10,2,29,0.59
2013-12-7,49,41,31,46,36,29,98,83,51,30.23,29.93,10,0,16,0.48
2013-12-8,50,36,28,35,27,19,97,73,36,30.30,30.19,4,0,8,0.01
2013-12-9,56,40,29,27,20,12,78,48,26,30.39,30.29,4,0,10,0.00
2013-12-10,63,44,31,31,25,20,77,51,20,30.38,30.17,6,1,10,0.00
2013-12-11,65,48,38,35,26,19,64,45,18,30.19,30.13,8,1,9,0.00
2013-12-12,68,47,35,38,30,25,83,55,24,30.23,30.14,9,2,11,0.00
2013-12-13,70,47,35,44,35,30,94,65,32,30.30,30.21,3,1,5,0.00
2013-12-14,68,52,40,41,36,31,75,56,33,30.34,30.27,8,1,8,0.00
2013-12-15,73,56,45,42,34,28,67,45,23,30.33,30.20,5,0,8,0.00
2013-12-16,77,62,52,45,31,25,45,33,18,30.19,30.07,5,1,10,0.00
2013-12-17,77,62,54,50,36,28,52,39,25,30.13,29.98,4,0,6,0.00
2013-12-18,63,52,48,48,42,35,93,70,50,29.98,29.78,7,1,12,0.00
2013-12-19,60,49,42,44,37,24,90,65,38,29.91,29.72,8,1,15,0.00
2013-12-20,66,51,42,27,17,8,47,28,11,30.00,29.91,5,0,7,0.00
2013-12-21,73,54,41,49,41,22,87,65,37,30.06,29.95,3,0,6,0.00
2013-12-22,72,54,45,48,42,37,88,67,30,30.28,30.06,6,1,8,0.00
2013-12-23,73,52,40,48,41,37,91,69,32,30.37,30.27,6,1,9,0.00
2013-12-24,78,57,42,48,38,28,81,53,29,30.31,30.17,5,1,6,0.00
2013-12-25,74,58,48,43,35,29,61,44,23,30.23,30.15,9,1,10,0.00
2013-12-26,80,60,48,44,33,26,57,39,14,30.21,30.11,5,0,7,0.00
2013-12-27,77,59,50,50,34,26,56,40,22,30.18,30.08,2,0,5,0.00
2013-12-28,72,58,47,32,27,22,46,32,19,30.09,30.00,4,0,8,0.00
2013-12-29,73,58,48,33,27,19,48,31,17,30.15,30.04,7,1,9,0.00
2013-12-30,66,53,45,36,29,25,54,41,23,30.24,30.15,9,1,11,0.00
2013-12-31,70,52,43,44,30,20,74,46,17,30.25,30.11,8,1,9,0.00
2014-1-1,71,56,44,38,31,22,74,41,21,30.19,30.09,2,0,5,0.00
2014-1-2,75,59,49,43,37,30,57,45,27,30.12,30.01,5,0,8,0.00